Погода в Тамале

Россия / Пензенская область     52°32′38″N   43°14′54″E
темп.,
°C
ветер,
м/с
пор.,
м/с
влажн.,
%
обл.,
%
осадки,
мм/ч
давл.,
гПа
погр.,
м
22 мая, вс
вс2200:00+6ююв1268100 0.0 100610
03:00+6юв2365100 0.0 100461
06:00+7юв4885100 0.1 1001269
09:00+7юв4987100 0.6 1000380
12:00+9вюв4775100 0.0 999684
15:00+11юв5668100 0.1 9981026
18:00+12в1366100 1.1 99749
21:00+8всв3687100 2.2 999245
23 мая, пн
пн2300:00+6ссв4884100 0.4 999303
03:00+3с599025 0.4 1001214
06:00+3с69835 0.0 1002327
09:00+6ссз67595 0.0 10031052
12:00+9ссз565199 0.0 10031686
15:00+8сз6755100 0.0 10051383
18:00+7сз5762100 0.0 10061338
21:00+3з33784 0.0 100635
24 мая, вт
вт2400:00+2юз46825 0.0 1007105
03:00+3юз513845 0.0 1006254
06:00+5зюз511825 0.0 1006292
09:00+11з6858100 0.0 1006991
12:00+13з71052100 0.1 10062375
15:00+13зсз81047100 0.3 10052338
18:00+8сз4674100 0.1 1008914
21:00+6зсз3684100 0.1 1010131
25 мая, ср
ср2500:00+3сз35935 0.1 101189
03:00+2ссз35945 0.1 101291
06:00+3ссз46845 0.0 1014275
09:00+7ссз465812 0.0 10141290
12:00+9сз4553100 0.1 10151710
15:00+9зсз4557100 0.1 10151355
18:00+8сз456431 0.1 10161137
21:00+6сз247392 0.1 1017112
26 мая, чт
чт2600:00+4зсз238129 0.0 101735
03:00+4з237718 0.0 101740
06:00+5зюз24785 0.0 1016174
09:00+10юз456253 0.0 1015738
12:00+15юз6867100 0.0 10121281
15:00+17зюз8106395 0.8 10101453
18:00+15зюз81475100 1.6 1008669
21:00+13юз71482100 2.4 1006482